COSMOS 2448 (GLONASS)

Satellite information

Favourite Embed

Satellite Type and Status

PAYLOADIN ORBIT

Key statistics

Satellite COSMOS 2448 (GLONASS) at a glance.

Uptime

6197

Days in orbit

Revolutions

≈ 2.1

Per day

Orbit

MEO

Medium Earth Orbit

Inclination

64.7

Latest

Satellite identification and parameters

Extended collection of information and parameters for COSMOS 2448 (GLONASS).

Object identification

Identified? True

Debris? False

Object name: COSMOS 2448 (GLONASS)

International designator: 2008-067C

Object number (NORAD): 33468

Object ID (CCSDS): 33468

Country: COMMONWEALTH OF INDEPENDENT STATES (CIS)

Current information (Y/N): Y

RCS size: LARGE

Orbital parameters

Period: 675.686 minutes

Inclination: 64.7005 deg

SMA: 25506.854 km

Apoapsis: 19136.974 km

Periapsis: 19120.464 km

RAAN: 75.7574 deg

Eccentricy: 0.00032363

Argument of periapsis: 212.7171 deg

Mean anomaly: 147.2847 deg

Mean motion: 2.13116668 rev/day

Mean motion (dot): -0.00000032 rev/day2

B* drag term: 0.0 1/REarth

Two-line elements (TLE)

Creation date: Dec. 11, 2025, 7:14 p.m.

Reference frame: TEME

Reference center: EARTH

Epoch: Dec. 10, 2025, 10:17 p.m. UTC

TLE line 0: 0 COSMOS 2448 (GLONASS)

TLE line 1: 1 33468U 08067C 25344.92909705 -.00000032 00000-0 00000-0 0 9990

TLE line 2: 2 33468 64.7005 75.7574 0003236 212.7171 147.2847 2.13116668132023

Live tracking on map

Real-time ground track for satellite COSMOS 2448 (GLONASS).

In-orbit conjunctions

There are no conjunctions computed for COSMOS 2448 (GLONASS), at the moment. Check back to stay up to date, as we update our databases every day.

Go to all conjunctions

Associated space launch

GLONASS navigation satellites

COSMOS 2448 (GLONASS) was lifted into orbit during the mission ‘Proton-M | Uragan-M 18 to 20’, on board a Proton-M space rocket.

The launch took place on Dec. 25, 2008, 10:43 a.m. from 81/24 (81P).

For more information about the launch, click the button.

Launch to space Proton-M | Uragan-M 18 to 20
Proton-M | Uragan-M 18 to 20

Agency: N/A

Status: Launch Successful

Launch date: Dec. 25, 2008, 10:43 a.m. UTC

Rocket: Proton-M

Launch pad: 81/24 (81P)

Location: Baikonur Cosmodrome, Republic of Kazakhstan

...

Latest news about this satellite

There are no fresh news available about this satellite. Check back as we update our databases every day.


Newsletter sign-up

Weekly statistics, charts and insights to help you stay on top of the space industry.